Location: Im Fang
(46.6019°N, 7.2397°E)
Time: 22:33:20
(UTC+00:00)

CZ-4C R/B - Pass Details

Date: 08 December 2019
Orbit: 646 x 1356 km, 63.4° (Epoch: 24 January)

Event Time Altitude Azimuth Distance (km) Brightness Sun altitude
Exits shadow 02:41:45 35° 63° (ENE) 1,827 4.1 -43.6°
Drops below altitude 10° 02:47:28 10° 103° (ESE) 3,275 5.8 -42.6°
Sets 02:50:42 0° 111° (ESE) 4,306 6.5 -42.1°
